• In Hungary
  • List of Countries
  • For 7 days
  • Water Temperature
  • Satellite Maps
  • Weather Map
  • News
  • Weather Widgets
  • user-avatar
    Login

    Hourly Weather Vekshyo

    Today, 21 May, Monday

    Time Temperature Precipitation Wind Pressure Humidity
    00:00 +9°C° 0 mm 1 mps 755 mmHg 47%
    01:00 +9°C° 0 mm 1 mps 755 mmHg 43%
    02:00 +9°C° 0 mm 1 mps 755 mmHg 43%
    03:00 +9°C° 0 mm 1 mps 755 mmHg 43%
    04:00 +7°C° 0 mm 0 mps 755 mmHg 44%
    05:00 +11°C° 0 mm 1 mps 755 mmHg 40%
    06:00 +14°C° 0 mm 1 mps 755 mmHg 37%
    07:00 +16°C° 0 mm 1 mps 756 mmHg 33%
    08:00 +19°C° 0 mm 1 mps 756 mmHg 31%
    09:00 +21°C° 0 mm 1 mps 755 mmHg 29%
    10:00 +21°C° 0 mm 2 mps 755 mmHg 27%
    11:00 +23°C° 0 mm 2 mps 755 mmHg 26%
    12:00 +24°C° 0 mm 2 mps 755 mmHg 25%
    13:00 +24°C° 0 mm 2 mps 755 mmHg 24%
    14:00 +24°C° 0 mm 2 mps 754 mmHg 24%
    15:00 +24°C° 0 mm 2 mps 754 mmHg 24%
    16:00 +24°C° 0 mm 2 mps 754 mmHg 24%
    17:00 +21°C° 0 mm 2 mps 753 mmHg 29%
    18:00 +20°C° 0 mm 2 mps 753 mmHg 34%
    19:00 +18°C° 0 mm 2 mps 753 mmHg 38%
    20:00 +16°C° 0 mm 2 mps 753 mmHg 43%
    21:00 +15°C° 0 mm 2 mps 752 mmHg 48%
    22:00 +13°C° 0 mm 1 mps 752 mmHg 53%
    23:00 +12°C° 0 mm 1 mps 752 mmHg 57%

    Tomorrow, 22 May, Tuesday

    Time Temperature Precipitation Wind Pressure Humidity
    00:00 +11°C° 0 mm 1 mps 752 mmHg 60%
    01:00 +11°C° 0 mm 1 mps 751 mmHg 64%
    02:00 +10°C° 0 mm 1 mps 751 mmHg 67%
    03:00 +10°C° 0 mm 1 mps 751 mmHg 70%
    04:00 +10°C° 0 mm 1 mps 750 mmHg 73%
    05:00 +12°C° 0 mm 1 mps 750 mmHg 66%
    06:00 +14°C° 0 mm 1 mps 750 mmHg 59%
    07:00 +17°C° 0 mm 2 mps 750 mmHg 52%
    08:00 +18°C° 0 mm 2 mps 750 mmHg 47%
    09:00 +20°C° 0 mm 2 mps 750 mmHg 42%
    10:00 +21°C° 0 mm 3 mps 750 mmHg 37%
    11:00 +21°C° 0 mm 2 mps 750 mmHg 36%
    12:00 +21°C° 0 mm 2 mps 749 mmHg 36%
    13:00 +21°C° 0 mm 2 mps 749 mmHg 35%
    14:00 +21°C° 0 mm 2 mps 749 mmHg 37%
    15:00 +22°C° 0 mm 1 mps 749 mmHg 38%
    16:00 +22°C° 0 mm 1 mps 749 mmHg 40%
    17:00 +21°C° 0 mm 1 mps 749 mmHg 44%
    18:00 +20°C° 0 mm 1 mps 749 mmHg 48%
    19:00 +17°C° 0 mm 0 mps 749 mmHg 52%
    20:00 +16°C° 0 mm 1 mps 749 mmHg 59%
    21:00 +14°C° 0 mm 1 mps 749 mmHg 65%
    22:00 +13°C° 0 mm 1 mps 749 mmHg 72%
    23:00 +12°C° 0 mm 1 mps 749 mmHg 74%

    Day after tomorrow, 23 May, Wednesday

    Time Temperature Precipitation Wind Pressure Humidity
    00:00 +12°C° 0 mm 1 mps 749 mmHg 77%
    01:00 +11°C° 0 mm 1 mps 749 mmHg 79%
    02:00 +11°C° 0 mm 1 mps 750 mmHg 79%
    03:00 +11°C° 0 mm 1 mps 750 mmHg 79%
    04:00 +10°C° 0 mm 1 mps 750 mmHg 79%
    05:00 +13°C° 0 mm 1 mps 750 mmHg 69%
    06:00 +15°C° 0 mm 1 mps 751 mmHg 59%
    07:00 +19°C° 0 mm 1 mps 751 mmHg 50%
    08:00 +20°C° 0 mm 2 mps 751 mmHg 43%
    09:00 +23°C° 0 mm 2 mps 752 mmHg 36%
    10:00 +25°C° 0 mm 2 mps 752 mmHg 30%
    11:00 +25°C° 0 mm 2 mps 752 mmHg 29%
    12:00 +26°C° 0 mm 2 mps 752 mmHg 28%
    13:00 +26°C° 0 mm 2 mps 753 mmHg 27%
    14:00 +26°C° 0 mm 1 mps 753 mmHg 30%
    15:00 +25°C° 0 mm 1 mps 753 mmHg 33%
    16:00 +25°C° 0 mm 1 mps 753 mmHg 35%
    17:00 +24°C° 0 mm 1 mps 753 mmHg 38%
    18:00 +23°C° 0 mm 1 mps 753 mmHg 42%
    19:00 +22°C° 0 mm 1 mps 753 mmHg 45%
    20:00 +20°C° 0 mm 1 mps 754 mmHg 51%
    21:00 +18°C° 0 mm 1 mps 754 mmHg 58%
    22:00 +15°C° 0 mm 1 mps 755 mmHg 64%
    23:00 +14°C° 0 mm 2 mps 755 mmHg 67%

    24 May, Thursday

    Time Temperature Precipitation Wind Pressure Humidity
    00:00 +13°C° 0 mm 2 mps 755 mmHg 70%
    01:00 +13°C° 0 mm 2 mps 756 mmHg 73%
    02:00 +12°C° 0 mm 2 mps 756 mmHg 75%
    03:00 +12°C° 0 mm 2 mps 756 mmHg 77%
    04:00 +10°C° 0 mm 2 mps 756 mmHg 78%
    05:00 +13°C° 0 mm 2 mps 757 mmHg 68%
    06:00 +14°C° 0 mm 3 mps 757 mmHg 57%
    07:00 +17°C° 0 mm 3 mps 757 mmHg 47%
    08:00 +19°C° 0 mm 4 mps 757 mmHg 40%
    09:00 +21°C° 0 mm 4 mps 758 mmHg 32%
    10:00 +23°C° 0 mm 5 mps 758 mmHg 25%
    11:00 +23°C° 0 mm 5 mps 758 mmHg 23%
    12:00 +25°C° 0 mm 5 mps 758 mmHg 22%
    13:00 +25°C° 0 mm 5 mps 758 mmHg 21%
    14:00 +25°C° 0 mm 5 mps 758 mmHg 21%
    15:00 +25°C° 0 mm 5 mps 757 mmHg 21%
    16:00 +23°C° 0 mm 5 mps 757 mmHg 21%
    17:00 +22°C° 0 mm 4 mps 757 mmHg 24%
    18:00 +20°C° 0 mm 4 mps 757 mmHg 27%
    19:00 +19°C° 0 mm 3 mps 757 mmHg 30%
    20:00 +16°C° 0 mm 3 mps 757 mmHg 38%
    21:00 +14°C° 0 mm 2 mps 757 mmHg 46%
    22:00 +12°C° 0 mm 2 mps 757 mmHg 54%
    23:00 +10°C° 0 mm 2 mps 757 mmHg 64%

    25 May, Friday

    Time Temperature Precipitation Wind Pressure Humidity
    00:00 +9°C° 0 mm 2 mps 757 mmHg 73%
    01:00 +8°C° 0 mm 2 mps 757 mmHg 83%
    02:00 +8°C° 0 mm 2 mps 757 mmHg 86%
    03:00 +8°C° 0 mm 2 mps 756 mmHg 89%
    04:00 +8°C° 0 mm 2 mps 756 mmHg 92%
    05:00 +12°C° 0 mm 2 mps 756 mmHg 83%
    06:00 +14°C° 0 mm 2 mps 756 mmHg 73%
    07:00 +16°C° 0 mm 2 mps 756 mmHg 64%
    08:00 +19°C° 0 mm 2 mps 757 mmHg 57%
    09:00 +21°C° 0 mm 3 mps 757 mmHg 50%
    10:00 +24°C° 0 mm 3 mps 757 mmHg 43%
    11:00 +24°C° 0 mm 3 mps 757 mmHg 42%
    12:00 +25°C° 0 mm 3 mps 757 mmHg 41%
    13:00 +25°C° 0 mm 3 mps 756 mmHg 40%
    14:00 +25°C° 0 mm 3 mps 756 mmHg 40%
    15:00 +25°C° 0 mm 3 mps 756 mmHg 40%
    16:00 +24°C° 0 mm 3 mps 756 mmHg 39%
    17:00 +22°C° 0 mm 3 mps 756 mmHg 43%
    18:00 +21°C° 0 mm 3 mps 756 mmHg 47%
    19:00 +20°C° 0 mm 3 mps 756 mmHg 50%
    20:00 +17°C° 0 mm 2 mps 756 mmHg 58%
    21:00 +15°C° 0 mm 2 mps 756 mmHg 66%
    22:00 +13°C° 0 mm 2 mps 756 mmHg 73%
    23:00 +12°C° 0 mm 2 mps 756 mmHg 76%

    26 May, Saturday

    Time Temperature Precipitation Wind Pressure Humidity
    00:00 +10°C° 0 mm 2 mps 756 mmHg 78%
    01:00 +9°C° 0 mm 2 mps 756 mmHg 81%
    02:00 +9°C° 0 mm 2 mps 756 mmHg 82%
    03:00 +9°C° 0 mm 2 mps 756 mmHg 83%
    04:00 +9°C° 0 mm 2 mps 756 mmHg 83%
    05:00 +12°C° 0 mm 2 mps 756 mmHg 76%
    06:00 +15°C° 0 mm 2 mps 756 mmHg 68%
    07:00 +17°C° 0 mm 2 mps 756 mmHg 60%
    08:00 +19°C° 0 mm 2 mps 756 mmHg 55%
    09:00 +21°C° 0 mm 2 mps 756 mmHg 50%
    10:00 +24°C° 0 mm 2 mps 756 mmHg 45%
    11:00 +24°C° 0.3 mm 2 mps 756 mmHg 46%
    12:00 +24°C° 0.3 mm 3 mps 756 mmHg 48%
    13:00 +25°C° 0.3 mm 3 mps 755 mmHg 50%
    14:00 +24°C° 0.5 mm 2 mps 755 mmHg 52%
    15:00 +24°C° 0.5 mm 2 mps 755 mmHg 54%
    16:00 +23°C° 0.5 mm 2 mps 755 mmHg 56%
    17:00 +21°C° 0.2 mm 2 mps 754 mmHg 59%
    18:00 +20°C° 0.2 mm 2 mps 754 mmHg 62%
    19:00 +19°C° 0.2 mm 2 mps 754 mmHg 65%
    20:00 +18°C° 0 mm 2 mps 754 mmHg 70%
    21:00 +16°C° 0 mm 2 mps 754 mmHg 75%
    22:00 +14°C° 0 mm 2 mps 754 mmHg 80%
    23:00 +13°C° 0 mm 2 mps 754 mmHg 83%
    Show more